Total_Precipitation_Accumulation
0.02 0.03 0.16 0.17 0.11 0.06 0.05 0.04 0.02 0.02 0.02 0.01 0.01 0.03 0.04 0.00 0.00 0.00 0.00 0.00 0.00 0.00 0.00 0.00 0.00 0.00 0.00 0.00 0.00 0.01 0.07 0.04 0.06 0.06 0.07 0.12 0.08 0.05 0.01 0.03 0.05 0.05 0.04
0.00 0.00 0.09 0.10 0.08 0.07 0.07 0.06 0.05 0.05 0.03 0.03 0.03 0.04 0.03 0.02 0.02 0.01 0.01 0.00 0.00 0.00 0.01 0.01 0.00 0.00 0.00 0.00 0.00 0.01 0.07 0.05 0.04 0.04 0.04 0.07 0.07 0.05 0.01 0.03 0.06 0.14 0.18
0.00 0.00 0.01 0.03 0.04 0.05 0.04 0.06 0.09 0.09 0.07 0.06 0.04 0.05 0.05 0.05 0.05 0.03 0.02 0.01 0.01 0.00 0.00 0.02 0.01 0.01 0.00 0.01 0.00 0.03 0.05 0.01 0.02 0.02 0.01 0.00 0.01 0.06 0.05 0.04 0.05 0.14 0.14
0.00 0.00 0.00 0.01 0.01 0.02 0.02 0.03 0.04 0.06 0.07 0.05 0.03 0.03 0.04 0.06 0.09 0.12 0.10 0.07 0.06 0.03 0.00 0.00 0.02 0.02 0.00 0.02 0.02 0.02 0.02 0.01 0.02 0.00 0.00 0.03 0.02 0.06 0.09 0.08 0.07 0.11 0.14
0.00 0.00 0.00 0.00 0.00 0.00 0.01 0.01 0.03 0.05 0.05 0.03 0.02 0.03 0.05 0.08 0.12 0.15 0.14 0.13 0.13 0.11 0.04 0.03 0.03 0.05 0.04 0.02 0.02 0.01 0.02 0.02 0.02 0.00 0.00 0.01 0.03 0.05 0.15 0.14 0.10 0.30 0.42
0.00 0.00 0.00 0.00 0.00 0.00 0.00 0.00 0.01 0.02 0.02 0.01 0.02 0.03 0.04 0.06 0.10 0.15 0.13 0.12 0.10 0.09 0.10 0.07 0.05 0.05 0.07 0.06 0.02 0.03 0.04 0.06 0.04 0.00 0.00 0.01 0.08 0.07 0.35 0.24 0.16 0.35 0.41
0.00 0.00 0.00 0.00 0.00 0.00 0.00 0.00 0.00 0.00 0.00 0.00 0.00 0.00 0.01 0.01 0.02 0.08 0.11 0.12 0.10 0.10 0.14 0.14 0.11 0.09 0.09 0.08 0.03 0.04 0.07 0.10 0.07 0.01 0.00 0.00 0.06 0.32 0.38 0.39 0.26 0.29 0.24
0.00 0.00 0.00 0.00 0.00 0.00 0.00 0.00 0.00 0.00 0.00 0.00 0.00 0.00 0.00 0.01 0.01 0.03 0.07 0.08 0.04 0.10 0.13 0.12 0.11 0.12 0.11 0.09 0.10 0.11 0.10 0.09 0.07 0.02 0.00 0.00 0.04 0.33 0.55 0.56 0.39 0.17 0.16
0.00 0.00 0.00 0.00 0.00 0.00 0.00 0.00 0.00 0.00 0.00 0.00 0.00 0.00 0.00 0.00 0.00 0.00 0.00 0.01 0.01 0.04 0.10 0.13 0.11 0.15 0.10 0.07 0.07 0.09 0.12 0.15 0.11 0.01 0.00 0.00 0.00 0.12 0.44 0.53 0.52 0.27 0.16
0.00 0.00 0.00 0.00 0.00 0.00 0.00 0.00 0.00 0.00 0.00 0.00 0.00 0.00 0.00 0.00 0.00 0.00 0.00 0.00 0.00 0.01 0.04 0.07 0.09 0.12 0.12 0.08 0.06 0.09 0.13 0.17 0.04 0.04 0.01 0.00 0.01 0.04 0.15 0.27 0.37 0.41 0.29
0.00 0.00 0.00 0.00 0.00 0.00 0.00 0.00 0.00 0.00 0.00 0.00 0.00 0.00 0.00 0.00 0.00 0.00 0.00 0.00 0.00 0.00 0.01 0.05 0.05 0.05 0.10 0.05 0.07 0.13 0.11 0.05 0.07 0.05 0.02 0.00 0.06 0.11 0.13 0.11 0.19 0.28 0.32
0.00 0.00 0.00 0.00 0.00 0.00 0.00 0.00 0.00 0.00 0.00 0.00 0.00 0.00 0.00 0.00 0.00 0.00 0.00 0.00 0.00 0.01 0.01 0.00 0.03 0.06 0.10 0.09 0.09 0.12 0.09 0.10 0.16 0.11 0.05 0.03 0.08 0.14 0.16 0.19 0.12 0.14 0.29
0.00 0.00 0.00 0.00 0.00 0.00 0.00 0.00 0.00 0.00 0.00 0.00 0.00 0.00 0.00 0.00 0.00 0.00 0.00 0.00 0.00 0.00 0.00 0.02 0.05 0.06 0.10 0.14 0.14 0.17 0.17 0.23 0.16 0.21 0.14 0.06 0.10 0.13 0.17 0.21 0.21 0.16 0.19
0.00 0.00 0.00 0.00 0.00 0.00 0.00 0.00 0.00 0.00 0.00 0.00 0.00 0.00 0.00 0.00 0.00 0.00 0.00 0.00 0.00 0.00 0.00 0.01 0.04 0.07 0.09 0.13 0.19 0.23 0.27 0.31 0.25 0.20 0.17 0.12 0.12 0.14 0.23 0.28 0.33 0.29 0.28
0.00 0.00 0.00 0.00 0.00 0.00 0.00 0.00 0.00 0.00 0.00 0.00 0.00 0.00 0.00 0.00 0.00 0.00 0.00 0.00 0.00 0.00 0.00 0.00 0.00 0.03 0.16 0.20 0.36 0.55 0.40 0.44 0.45 0.47 0.43 0.37 0.29 0.21 0.25 0.32 0.47 0.57 0.33
0.00 0.00 0.00 0.00 0.00 0.00 0.00 0.00 0.00 0.00 0.00 0.00 0.00 0.00 0.00 0.00 0.00 0.00 0.00 0.00 0.00 0.00 0.00 0.00 0.00 0.00 0.02 0.10 0.22 0.66 1.11 0.91 0.95 1.02 0.92 0.72 0.59 0.54 0.44 0.40 0.44 0.68 0.84
0.00 0.00 0.00 0.00 0.00 0.00 0.00 0.00 0.00 0.00 0.00 0.00 0.00 0.00 0.00 0.00 0.00 0.00 0.00 0.00 0.00 0.00 0.00 0.00 0.00 0.00 0.00 0.01 0.01 0.14 0.65 0.96 0.85 0.85 1.17 1.45 1.52 1.32 0.94 0.75 0.55 0.73 0.94
0.00 0.00 0.00 0.00 0.00 0.00 0.00 0.00 0.00 0.00 0.00 0.00 0.00 0.00 0.00 0.00 0.00 0.00 0.00 0.00 0.00 0.00 0.00 0.00 0.00 0.00 0.00 0.00 0.00 0.00 0.04 0.21 0.65 0.78 0.78 0.88 1.14 1.61 1.96 1.87 1.66 1.32 1.16
0.00 0.00 0.00 0.00 0.00 0.00 0.00 0.00 0.00 0.00 0.00 0.00 0.00 0.00 0.00 0.00 0.00 0.00 0.00 0.00 0.00 0.00 0.00 0.00 0.00 0.00 0.00 0.00 0.00 0.00 0.00 0.00 0.04 0.15 0.25 0.38 0.55 0.71 0.92 1.08 1.25 1.31 1.31
0.00 0.00 0.00 0.00 0.00 0.00 0.00 0.00 0.00 0.00 0.00 0.00 0.00 0.00 0.00 0.00 0.00 0.00 0.00 0.00 0.00 0.00 0.00 0.00 0.00 0.00 0.00 0.00 0.00 0.00 0.00 0.00 0.00 0.01 0.07 0.11 0.17 0.31 0.36 0.36 0.48 0.63 0.70
0.00 0.00 0.00 0.00 0.00 0.00 0.00 0.00 0.00 0.00 0.00 0.00 0.00 0.00 0.00 0.00 0.00 0.00 0.00 0.00 0.00 0.00 0.00 0.00 0.00 0.00 0.00 0.00 0.00 0.00 0.00 0.00 0.00 0.00 0.00 0.03 0.08 0.15 0.23 0.17 0.15 0.19 0.32
0.00 0.00 0.00 0.00 0.00 0.00 0.00 0.00 0.00 0.00 0.00 0.00 0.00 0.00 0.00 0.00 0.00 0.00 0.00 0.00 0.00 0.00 0.00 0.00 0.00 0.00 0.00 0.00 0.01 0.01 0.00 0.00 0.00 0.00 0.00 0.02 0.04 0.14 0.18 0.24 0.20 0.12 0.11
0.00 0.00 0.00 0.00 0.00 0.00 0.00 0.00 0.00 0.00 0.00 0.00 0.00 0.00 0.00 0.00 0.00 0.00 0.00 0.00 0.00 0.00 0.00 0.00 0.00 0.00 0.00 0.00 0.01 0.03 0.03 0.03 0.00 0.00 0.01 0.02 0.02 0.06 0.17 0.33 0.34 0.33 0.19
0.00 0.00 0.00 0.00 0.00 0.00 0.00 0.00 0.00 0.00 0.00 0.00 0.00 0.00 0.00 0.00 0.00 0.00 0.00 0.00 0.00 0.00 0.00 0.00 0.00 0.00 0.00 0.00 0.00 0.01 0.02 0.05 0.06 0.03 0.01 0.01 0.01 0.02 0.05 0.18 0.42 0.45 0.37
0.00 0.00 0.00 0.00 0.00 0.00 0.00 0.00 0.00 0.00 0.00 0.00 0.00 0.00 0.00 0.00 0.00 0.00 0.00 0.00 0.00 0.00 0.00 0.00 0.00 0.00 0.00 0.00 0.00 0.00 0.00 0.00 0.02 0.06 0.03 0.01 0.00 0.01 0.03 0.04 0.10 0.20 0.22
0.00 0.00 0.00 0.00 0.00 0.00 0.00 0.00 0.00 0.00 0.00 0.00 0.00 0.00 0.00 0.00 0.00 0.00 0.00 0.00 0.00 0.00 0.00 0.00 0.00 0.00 0.00 0.00 0.00 0.00 0.01 0.02 0.01 0.03 0.07 0.02 0.01 0.00 0.00 0.00 0.00 0.03 0.10